singapore: the smallest big galery
home » forum » Mods

You are not logged in.

Mods

Topic Replies Views Last post
0 1646 2017-02-28 15:00:40 by linrx
wordpress template by gingster
8 22169 2013-07-09 13:04:18 by SPOT LIGHTSA
8 12644 2013-06-10 13:13:10 by political
imagemap_navigation = off by snapfamous
2 5765 2013-06-04 04:57:25 by 5Linx a
paypal integration by bwaje
7 15345 2013-05-01 13:30:28 by Mlm
pagination by eddiejanzer
3 9431 2013-04-17 06:43:04 by Rocky90241
Exif howto by bluemoon
13 27291 2013-01-30 09:37:52 by tentionfree
Moving images via admin by forty two  [ 1 2 3 ]
39 82669 2013-01-21 07:48:47 by amusalin
Full Size Image Popup by quicksketch
14 42365 2013-01-17 08:59:30 by forger
0 3390 2012-12-06 06:18:01 by Mattiy
1 5997 2011-12-01 06:42:20 by dick123
facebook like button? by steliosk
4 8642 2011-08-25 21:28:10 by PrimaFoto
2 5866 2011-08-22 20:50:53 by focale31
1 4830 2011-07-05 07:20:25 by mikeatx
2 6658 2011-06-27 19:47:31 by DC
7 16232 2011-06-22 18:04:53 by pcphotos
9 30140 2011-03-27 17:18:14 by DC
14 31804 2010-01-21 15:48:06 by phyllis01
1 6042 2010-01-20 01:56:41 by DC
upload multiple files by eddiejanzer
9 20254 2009-05-18 17:58:31 by PrimaFoto
0 5602 2009-05-13 05:28:55 by DC
8 24273 2008-11-03 04:22:36 by DC
Posting comments by VSingh
1 6674 2008-10-26 22:02:55 by DC
1 7274 2008-09-12 11:54:11 by crash01
4 11697 2008-07-16 22:38:21 by DC
singapore and wordpress by eddiejanzer
3 10099 2008-03-27 13:13:52 by pavian
31 69131 2008-02-04 06:25:25 by bhchen
12 25776 2008-01-21 08:18:10 by crespowu
3 7922 2008-01-11 16:30:58 by DC
0 4380 2007-12-04 03:48:14 by samrohn